Location: Alpha Ridge Park
(39.3209°N, 76.9128°W)
Time: 07:44:46
(UTC-04:00)

AO-92 - Pass Details

Date: 04 July 2022
Orbit: 469 x 481 km, 97.4° (Epoch: 09 August)

Event Time Altitude Azimuth Distance (km) Brightness Sun altitude
Exits shadow 23:46:30 31° 281° (W) 860 ? -24.7°
Drops below altitude 10° 23:49:14 10° 328° (NNW) 1,653 ? -24.9°
Sets 23:51:30 0° 339° (NNW) 2,552 ? -25.1°
